sat.trackr.live / text

‹ back to catalog

GLOBALSTAR M081

NORAD 37743 · 2011-033E

PAYLOAD ACTIVE UNKNOWN

§ Identity

Operator
Country
GLOB
Launch date
2011-07-13
Launch site
TYMSC
Launch vehicle
Mass (kg)
RCS (m²)
4.86

Purposes: comms

External: N2YO · Heavens-Above · Gunter

§ Orbital elements

Epoch: 2026-09-19T23:44:40.017120Z

Period
114.08 min
Inclination
51.9943°
Eccentricity
0.0000209
Mean motion
12.62266414 rev/d
Perigee alt
1,413.4 km
Apogee alt
1,413.8 km
Semi-major
7,791.7 km
B*
1.5489e-4
RAAN
267.0004°
Arg perigee
81.0381°
Mean anomaly
296.3102°
Rev number
70,191

§ Raw data

GLOBALSTAR M0811 37743U 11033E   26262.98935205 -.00000076  00000+0  15489-3 0  99942 37743  51.9943 267.0004 0000209  81.0381 296.3102 12.62266414701913

JSON: /api/v1/satellites/37743 · /tle

For live sub-satellite position, see the globe view (requires WebGL).

§ Visibility from observer

Set your observer location to see the next 7 days of passes ≥ 10°. The values pass through the URL so the page stays shareable.

No JS? Fill the form by hand. The geolocation button needs JavaScript.